Regional Weather Roundup
Issued by NWS

Home | Current Version | Previous Version | Graphics & Text | Print | Product List | Glossary Off
Versions: 1 2 3 4 5 6 7 8 9 10 11 12 13 14 15 16 17 18 19 20 21 22 23 24 25 26 27 28 29 30 31 32 33 34 35 36 37 38 39 40 41 42 43 44 45 46 47 48 49 50

000
ASUS43 KMPX 291310
RWRMN
WEATHER ROUNDUP FOR MINNESOTA
NATIONAL WEATHER SERVICE TWIN CITIES/CHANHASSEN MN
800 AM CDT WED MAR 29 2017


NOTE: "FAIR" INDICATES FEW OR NO CLOUDS BELOW 12,000 FEET WITH NO
SIGNIFICANT WEATHER AND/OR OBSTRUCTIONS TO VISIBILITY. N/A MEANS
CURRENT SKY AND/OR WEATHER CONDITIONS ARE NOT AVAILABLE.

MNZ060>063-068>070-291400-
   Twin Cities Metro

CITY           SKY/WX    TMP DP  RH WIND       PRES   REMARKS
TWIN CITIES    CLOUDY    45  33  63 SE6       30.22R
ST PAUL        CLOUDY    42  35  76 E3        30.23R
CRYSTAL        CLOUDY    40  30  67 N3        30.22R
BLAINE         CLOUDY    37  30  75 CALM      30.22R
LAKEVILLE      CLOUDY    37  34  87 CALM      30.21S
EDEN PRAIRIE   CLOUDY    44  34  67 E5        30.20R
SOUTH ST PAUL  CLOUDY    41  32  71 CALM      30.22R
LAKE ELMO      FAIR      37  32  81 CALM      30.24R
$$
MNZ001>005-007-008-013>017-022>024-027-028-291400-
   Northwest Minnesota

CITY           SKY/WX    TMP DP  RH WIND       PRES   REMARKS
BEMIDJI        CLOUDY    34  28  80 E6        30.23R WCI  29
HALLOCK        CLOUDY    34  30  86 SE8       30.17F WCI  27
ROSEAU         CLOUDY    36  30  80 E5        30.20R
WARROAD        PTCLDY    34  30  86 E6        30.22R WCI  29
THIEF RVR FALL CLOUDY    35  29  78 SE10      30.20R WCI  27
CROOKSTON      PTCLDY    34  30  86 CALM      30.20R
FOSSTON        CLOUDY    37  28  70 E6        30.20R
DETROIT LAKES  CLOUDY    39  30  70 SE8       30.20S
MOORHEAD       CLOUDY    34  32  93 CALM      30.18S
PARK RAPIDS    CLOUDY    37  26  64 SE5       30.21R
MAHNOMEN       FAIR      40  29  66 SE9       30.18S
$$
MNZ006-009>011-018-025>026-291400-
   North Central Minnesota

CITY           SKY/WX    TMP DP  RH WIND       PRES   REMARKS
BAUDETTE       PTCLDY    34  26  72 MISG      30.23S
FLAG ISLAND    PTCLDY    34  25  69 SE7       30.22S WCI  28
INTL FALLS     CLOUDY    32  25  75 E8        30.28S WCI  25
WASKISH        CLOUDY    34  28  80 E7        30.24R WCI  28
BIG FORK       PTCLDY    34  27  75 CALM      30.26S
LONGVILLE      PTCLDY    30  28  93 CALM      30.24R
GRAND RAPIDS   CLOUDY    32  23  69 SE6       30.28R WCI  26
CRANE LAKE     CLOUDY    27  25  93 CALM      30.32S
ORR            PTCLDY    30  21  69 CALM      30.26S
COOK           CLOUDY    30  25  80 CALM      30.29R
WALKER         FAIR      33  28  81 E3        30.23S
$$
MNZ012-019>021-037-291400-
   Northeast Minnesota

CITY           SKY/WX    TMP DP  RH WIND       PRES   REMARKS
DULUTH         MOSUNNY   33  28  81 E15       30.29R WCI  23
ELY            MOSUNNY   28  23  80 CALM      30.30S
HIBBING        CLOUDY    29  25  85 E3        30.28R
EVELETH        CLOUDY    32  21  64 NE5       30.30S WCI  28
DULUTH HARBOR  CLOUDY    36  34  93 NE16      30.33S
TWO HARBORS    MOSUNNY   36  28  75 NE13G20   30.30S
SILVER BAY     MOSUNNY   34  28  80 NE10      30.31S WCI  26
GRAND MARAIS     N/A     34  26  72 NE12G17   30.39R WCI  25
G MARAIS ARPRT SUNNY     27  19  74 E8        30.34R WCI  18
$$
MNZ029>031-032-039>041-046>048-054>057-064-291400-
   West Central Minnesota

CITY           SKY/WX    TMP DP  RH WIND       PRES   REMARKS
FERGUS FALLS   CLOUDY    41  30  65 E5        30.22S
WHEATON        FOG       32  30  93 CALM      30.20S VSB 1/2
MORRIS         MOCLDY    37  32  81 E8        30.18R
ALEXANDRIA     CLOUDY    39  30  70 E10       30.21R
ELBOW LAKE     FAIR      40  33  74 CALM      30.19R
WADENA         CLOUDY    34  28  80 E5        30.21S WCI  30
GLENWOOD       MOCLDY    37  30  75 NE7       30.20S
APPLETON       CLOUDY    37  32  81 CALM      30.18S
BENSON         CLOUDY    43  27  52 SE5       30.21R
ORTONVILLE     CLOUDY    36  34  93 CALM      30.18R
MADISON        CLOUDY    39  37  93 CALM      30.18S
WILLMAR        FAIR      39  34  81 E7        30.21R
$$
MNZ033>034-036-042>043-049>051-058-059-291400-
   Central Minnesota

CITY           SKY/WX    TMP DP  RH WIND       PRES   REMARKS
ST CLOUD       CLOUDY    35  30  82 E7        30.22R WCI  29
SAUK CENTRE    FAIR      37  29  75 E3        30.21R
PAYNESVILLE    CLOUDY    36  30  80 CALM      30.21R
AITKIN         CLOUDY    34  27  75 E3        30.24R
PINE RIVER     CLOUDY    34  28  80 E3        30.27R
BRAINERD       CLOUDY    33  28  81 E5        30.25R WCI  29
STAPLES        MOCLDY    34  28  80 E3        30.22S
LONG PRAIRIE   FAIR      34  28  80 N5        30.22R WCI  30
LITTLE FALLS   CLOUDY    34  28  80 CALM      30.23R
LITCHFIELD     CLOUDY    39  32  75 E3        30.21S
BUFFALO        CLOUDY    37  29  72 NE6       30.23R
MAPLE LAKE     CLOUDY    37  31  78 NE5       30.23R
HUTCHINSON     CLOUDY    40  32  73 NE6       30.21R
$$
MNZ037-044-045-052-053-291400-
   East Central Minnesota

CITY           SKY/WX    TMP DP  RH WIND       PRES   REMARKS
PRINCETON      CLOUDY    36  30  80 NE3       30.24R
MORA           CLOUDY    32  30  93 E3        30.27R
CAMBRIDGE      CLOUDY    36  27  69 NE5       30.23R
RUSH CITY      CLOUDY    33  29  86 NE7       30.26R WCI  27
MOOSE LAKE     CLOUDY    32  30  93 E7        30.26R WCI  26
CLOQUET        MOSUNNY   34  28  80 E10G18    30.28R WCI  26
MCGREGOR       CLOUDY    32  30  93 E7        30.27R WCI  26
$$
MNZ071>073-080-081-089-090-097-098-291400-
   Southwest Minnesota

CITY           SKY/WX    TMP DP  RH WIND       PRES   REMARKS
MONTEVIDEO     CLOUDY    36  30  80 CALM      30.19R
GRANITE FALLS  CLOUDY    38  34  85 CALM      30.20R
CANBY          CLOUDY    37  36  95 CALM      30.19S
MARSHALL       CLOUDY    38  34  85 CALM      30.19R
REDWOOD FALLS  CLOUDY    42  33  70 E5        30.18R
OLIVIA         CLOUDY    39  32  75 E3        30.18S
PIPESTONE      CLOUDY    41  34  75 CALM      30.15R
WINDOM         CLOUDY    39  37  93 E5        30.17R
WORTHINGTON    CLOUDY    38  36  92 NE3       30.16S
JACKSON        CLOUDY    37  36  93 NE6       30.17R
TRACY          CLOUDY    40  36  88 CALM      30.18R
SLAYTON        CLOUDY    36  35  94 CALM      30.17S
$$
MNZ065>067-074>077-082>085-091>093-291400-
   South Central Minnesota

CITY           SKY/WX    TMP DP  RH WIND       PRES   REMARKS
MANKATO        CLOUDY    43  37  79 SE9       30.20R
NEW ULM        CLOUDY    43  34  70 E3        30.19R
ST JAMES       CLOUDY    39  37  93 CALM      30.20R
FAIRMONT       CLOUDY    41  38  89 E5        30.18R
GLENCOE        CLOUDY    39  36  87 CALM      30.20R
FARIBAULT      CLOUDY    43  37  81 SE5       30.21R
OWATONNA       CLOUDY    43  36  75 E3        30.20S
WASECA         CLOUDY    39  36  87 E5        30.21S
ALBERT LEA     CLOUDY    43  36  75 E7        30.19R
$$
MNZ078>079-086>088-094>096-291400-
   Southeast Minnesota

CITY           SKY/WX    TMP DP  RH WIND       PRES   REMARKS
ROCHESTER      CLOUDY    40  34  79 SE8       30.21R
RED WING       CLOUDY    39  32  75 SE6       30.22R
STANTON        CLOUDY    40  35  81 CALM      30.20R
DODGE CENTER   CLOUDY    39  36  87 E6        30.21R
WINONA         CLOUDY    37  36  93 CALM      30.25R
AUSTIN         CLOUDY    41  36  81 E7        30.19S
PRESTON        CLOUDY    39  33  80 E5        30.21R
$$
ABBREVIATIONS USED IN REMARKS
   TC - TEMPERATURES IN CELSIUS
  WCI - WIND CHILL INDEX
   HX - HEAT INDEX
  VSB - VISIBILITY
$$




USA.gov is the U.S. government's official web portal to all federal, state and local government web resources and services.